Wind_Speed
54 57 60 62 64 66 69 72 74 74 73 74 76 78 80 83 86 91 95 100 105 109 111 111 109 103 96 89 85 84 84 86 89 93 98 103 109 115
57 60 62 64 66 69 72 73 74 75 76 75 78 81 86 90 96 102 106 110 112 110 105 96 86 76 69 65 62 62 62 64 67 70 75 80 85 91
60 62 64 67 70 71 72 74 75 77 77 77 82 87 93 99 105 109 110 107 100 89 79 70 62 58 54 51 49 49 50 51 52 54 57 61 66 72
62 65 67 69 70 72 73 75 76 79 81 83 88 95 101 107 108 105 97 86 74 65 60 55 52 48 45 43 44 45 46 47 48 49 49 51 53 56
64 66 68 69 71 73 74 76 79 83 88 93 97 102 105 105 98 87 73 63 57 53 51 49 46 43 42 43 44 44 44 45 45 46 46 47 47 48
66 68 69 71 72 74 76 80 85 90 96 102 105 105 100 90 78 65 54 50 47 46 46 44 42 42 43 44 45 46 45 44 44 44 45 45 45 45
67 69 70 71 73 77 81 87 92 98 104 107 104 96 82 69 58 49 44 41 40 43 42 41 41 42 44 45 46 47 47 45 44 43 43 44 43 43
68 69 71 73 77 82 88 94 100 104 105 100 90 76 62 52 45 41 39 36 35 38 39 38 40 41 43 43 43 43 43 42 42 41 40 39 38 38
69 70 73 77 83 88 94 100 103 101 94 83 69 57 49 44 39 37 35 34 34 37 37 35 38 39 40 38 37 36 36 35 33 32 31 31 31 31
70 73 78 83 90 95 99 101 96 86 74 63 55 47 43 40 38 36 34 32 33 36 37 35 35 36 35 32 30 29 29 28 27 26 25 26 26 27
73 78 84 90 95 100 99 93 80 67 57 51 46 43 41 40 38 37 36 35 32 33 36 35 34 31 31 27 25 25 26 25 25 25 24 25 26 27
78 84 90 95 99 97 89 76 61 52 47 44 43 42 40 40 40 40 39 38 35 32 32 32 30 26 23 25 23 24 26 27 27 26 25 25 27 28
83 89 94 96 93 84 71 58 49 43 41 40 40 39 40 40 40 40 40 39 37 33 31 28 26 23 19 19 23 26 28 29 28 27 27 27 27 27
88 93 94 89 78 66 54 46 41 39 39 38 38 39 39 39 39 38 38 38 38 34 29 26 23 21 19 18 21 25 28 30 29 28 27 27 27 27
91 91 84 73 61 51 43 39 38 37 36 36 36 36 36 36 36 35 34 34 35 34 28 24 21 19 19 18 20 24 27 27 28 28 28 26 26 27
87 78 66 56 47 39 36 35 34 33 33 33 33 33 34 33 33 31 31 30 30 31 29 24 20 18 18 19 21 25 29 29 28 27 25 25 26 26
74 62 51 43 37 34 33 33 32 32 32 32 32 32 32 32 31 30 29 28 27 25 25 24 21 17 16 17 19 24 28 29 28 25 23 23 24 26
59 47 39 34 32 31 30 30 31 31 31 32 32 32 31 31 30 29 29 27 25 23 20 19 18 16 16 17 21 23 26 27 25 24 22 21 23 26
44 35 30 29 28 27 27 28 29 30 31 32 31 31 31 30 29 28 27 25 23 20 17 15 14 13 12 15 20 23 23 23 22 21 20 22 25 27
32 27 24 24 25 25 26 27 29 31 31 31 31 31 30 29 28 26 25 22 19 17 15 12 10 9 9 11 15 18 19 20 20 19 19 22 25 27
23 20 21 22 23 24 25 27 29 30 31 31 31 31 30 29 27 25 23 20 16 14 11 9 7 6 7 10 14 16 16 17 18 18 18 20 23 26
17 17 18 20 22 23 26 27 29 31 31 31 31 30 29 28 26 24 21 17 14 11 8 6 4 4 6 9 12 14 14 15 17 17 16 17 19 22
13 15 17 19 21 23 26 28 29 31 32 32 31 30 29 27 25 22 18 14 11 8 6 4 3 3 6 9 11 12 12 14 16 17 17 16 18 22
Wind_Direction
293 294 295 297 297 298 298 298 299 299 299 300 299 299 298 298 297 297 296 296 295 293 292 291 289 287 286 283 281 278 275 273 271 268 265 263 261 259
295 297 298 298 299 299 300 301 301 301 302 302 301 301 301 301 300 300 299 298 297 296 294 293 292 290 288 287 284 282 280 278 276 272 269 265 262 260
297 299 299 300 301 302 302 303 303 303 303 303 303 303 303 302 301 301 300 299 298 297 296 295 294 293 292 290 287 286 285 285 284 281 276 272 267 263
300 301 302 303 303 304 305 305 305 305 305 305 305 305 304 303 303 302 301 299 298 297 297 297 297 296 293 291 290 289 289 288 288 287 283 278 274 268
302 303 304 305 305 306 306 306 306 306 306 306 306 306 305 305 304 303 301 298 297 297 297 298 298 297 295 294 293 292 291 291 290 288 285 281 277 272
304 305 306 306 307 307 307 307 307 307 307 307 307 307 307 306 304 302 300 298 297 297 298 299 300 299 299 299 300 300 298 295 290 286 282 278 276 273
305 306 307 308 308 309 309 309 308 308 308 308 309 308 308 306 304 302 300 297 297 297 298 301 302 302 301 303 304 303 301 297 292 285 279 275 272 270
306 307 308 309 309 309 310 309 309 309 309 309 309 309 308 306 304 302 299 297 296 296 299 302 302 302 303 305 306 305 303 299 294 288 282 277 272 269
308 309 309 310 310 310 310 311 311 310 310 310 310 310 309 306 304 302 300 299 299 298 300 302 302 303 306 309 312 313 311 308 304 298 290 283 276 272
309 310 310 311 311 311 312 312 312 311 310 309 310 309 308 305 304 303 301 301 303 301 302 304 303 305 309 314 319 323 323 320 316 309 300 293 285 278
310 310 311 312 312 312 313 313 313 311 309 309 309 308 307 305 304 304 303 303 304 303 303 305 305 307 310 317 323 328 330 328 323 317 308 300 292 285
311 312 313 313 314 314 315 315 313 311 309 308 308 308 307 306 306 306 305 304 304 303 302 303 302 303 305 311 318 323 327 327 325 320 313 305 297 291
313 313 314 315 315 316 316 315 313 311 309 308 308 306 305 305 305 305 304 304 304 305 303 300 297 298 301 302 312 320 324 325 324 320 315 308 301 295
315 316 316 316 317 317 316 315 314 313 312 311 309 307 306 304 304 304 303 303 304 304 303 299 295 293 296 302 310 318 323 325 325 323 318 312 306 301
317 317 317 317 318 318 318 317 317 316 316 315 314 312 309 307 305 304 303 302 303 304 303 300 295 293 297 302 312 319 324 325 323 322 319 315 311 307
318 318 318 318 319 320 320 321 321 321 321 321 320 318 316 313 310 308 305 302 302 302 303 301 296 293 297 306 316 325 329 331 330 327 325 323 320 318
318 318 318 319 321 323 323 324 325 325 325 325 326 325 323 319 316 314 312 308 304 300 297 299 299 296 299 306 319 330 334 335 334 335 335 336 335 332
319 319 320 321 324 326 327 328 329 329 328 327 327 327 326 324 321 318 315 311 307 303 298 294 297 300 307 316 328 337 339 339 341 343 348 352 352 347
319 320 323 326 330 332 334 334 334 333 331 330 329 329 329 327 325 323 320 315 310 306 302 296 295 296 302 315 326 338 345 350 354 359 4 6 5 3
321 324 329 333 337 339 339 339 339 338 336 335 334 333 331 330 329 327 325 320 314 309 308 305 300 299 305 320 333 343 354 2 7 12 17 18 17 17
324 331 336 340 343 344 345 344 343 343 342 341 339 338 336 335 333 332 329 325 320 316 313 313 310 313 322 336 349 358 7 12 15 22 26 27 28 30
330 338 343 347 349 350 350 349 349 349 348 346 344 343 342 341 339 336 334 331 328 326 325 328 332 338 343 353 4 11 17 21 24 29 31 35 39 43
339 347 352 355 357 356 355 354 354 354 353 351 349 347 346 345 343 341 342 343 344 346 353 6 21 19 9 10 17 23 29 31 35 39 41 44 49 52
Height
5660 5654 5649 5642 5635 5628 5621 5613 5606 5601 5595 5584 5572 5562 5551 5542 5533 5523 5513 5504 5492 5479 5466 5454 5442 5430 5420 5411 5404 5398 5393 5388 5384 5381 5380 5381 5384 5388
5647 5641 5634 5627 5620 5612 5604 5596 5586 5578 5573 5565 5552 5540 5528 5517 5505 5492 5480 5467 5454 5439 5426 5414 5404 5396 5388 5381 5375 5370 5364 5359 5354 5350 5347 5346 5346 5347
5633 5626 5619 5611 5603 5595 5586 5577 5567 5558 5551 5546 5532 5520 5506 5491 5477 5461 5445 5430 5417 5405 5394 5387 5380 5374 5367 5361 5356 5350 5345 5339 5333 5328 5323 5320 5318 5319
5619 5611 5603 5595 5586 5577 5567 5558 5548 5538 5528 5522 5513 5497 5481 5462 5447 5431 5414 5399 5389 5382 5375 5369 5363 5357 5352 5347 5341 5336 5330 5324 5318 5311 5306 5302 5298 5296
5604 5596 5587 5578 5569 5559 5549 5539 5529 5518 5506 5495 5486 5471 5454 5433 5417 5404 5390 5379 5371 5366 5360 5355 5349 5343 5338 5333 5327 5322 5317 5311 5304 5297 5291 5286 5282 5279
5589 5580 5571 5561 5551 5542 5532 5521 5509 5497 5483 5468 5456 5441 5424 5406 5391 5382 5374 5365 5358 5353 5347 5342 5337 5331 5325 5319 5313 5307 5301 5295 5289 5283 5277 5272 5268 5265
5573 5564 5555 5545 5535 5524 5512 5500 5486 5471 5456 5440 5426 5411 5397 5384 5374 5366 5361 5355 5348 5341 5337 5332 5325 5320 5313 5307 5300 5293 5286 5279 5272 5266 5261 5257 5253 5251
5558 5549 5539 5529 5518 5506 5492 5477 5460 5443 5427 5412 5398 5386 5376 5367 5360 5354 5349 5345 5340 5332 5326 5322 5315 5309 5302 5296 5289 5281 5272 5264 5257 5251 5247 5243 5241 5239
5543 5533 5523 5512 5499 5486 5472 5455 5436 5416 5399 5387 5377 5368 5361 5354 5350 5345 5339 5334 5328 5321 5317 5313 5305 5298 5292 5285 5278 5270 5261 5253 5246 5240 5237 5234 5232 5230
5528 5517 5506 5493 5478 5464 5450 5433 5413 5395 5381 5370 5362 5356 5349 5343 5339 5334 5329 5325 5320 5312 5305 5302 5296 5289 5282 5276 5270 5262 5254 5247 5240 5235 5231 5227 5224 5222
5513 5500 5487 5474 5459 5442 5426 5410 5394 5378 5366 5357 5351 5345 5339 5333 5327 5323 5318 5314 5310 5304 5297 5291 5286 5280 5274 5269 5263 5256 5249 5243 5237 5231 5226 5222 5218 5215
5498 5483 5468 5452 5435 5417 5401 5388 5377 5366 5357 5349 5342 5336 5330 5324 5318 5312 5307 5302 5299 5295 5289 5283 5277 5272 5268 5262 5257 5251 5245 5238 5232 5226 5221 5216 5211 5207
5479 5464 5448 5430 5413 5396 5383 5372 5363 5356 5348 5341 5334 5327 5321 5315 5309 5303 5297 5291 5287 5284 5280 5275 5270 5264 5261 5258 5252 5245 5239 5233 5227 5220 5214 5209 5203 5199
5459 5443 5426 5409 5394 5381 5371 5362 5354 5346 5340 5333 5326 5319 5313 5306 5300 5294 5288 5282 5277 5273 5270 5266 5262 5258 5255 5251 5247 5241 5234 5227 5220 5214 5207 5201 5195 5190
5439 5421 5405 5391 5379 5369 5361 5354 5347 5339 5332 5325 5318 5311 5304 5297 5292 5286 5280 5274 5269 5264 5261 5257 5254 5252 5249 5245 5241 5236 5230 5223 5215 5208 5201 5194 5187 5182
5420 5404 5390 5378 5369 5362 5354 5347 5340 5333 5326 5319 5312 5304 5297 5290 5283 5278 5273 5268 5263 5257 5252 5250 5247 5245 5243 5240 5235 5230 5223 5216 5209 5202 5194 5187 5180 5173
5404 5391 5380 5371 5363 5355 5348 5341 5335 5328 5320 5313 5306 5298 5291 5283 5277 5271 5265 5260 5256 5252 5248 5244 5242 5240 5238 5235 5231 5226 5218 5211 5203 5196 5189 5182 5174 5166
5391 5381 5372 5364 5358 5351 5344 5337 5330 5323 5315 5308 5300 5293 5286 5278 5271 5265 5259 5254 5249 5246 5243 5240 5238 5236 5234 5231 5227 5222 5216 5208 5200 5193 5185 5178 5171 5162
5381 5373 5366 5360 5353 5346 5340 5333 5326 5319 5311 5304 5296 5288 5281 5273 5266 5260 5253 5248 5243 5240 5238 5236 5235 5233 5231 5229 5225 5219 5214 5206 5199 5192 5185 5177 5169 5159
5374 5368 5362 5356 5350 5343 5337 5330 5323 5315 5308 5300 5291 5284 5276 5269 5262 5255 5249 5243 5239 5237 5235 5233 5232 5231 5229 5227 5224 5219 5213 5206 5199 5192 5186 5179 5171 5162
5369 5364 5359 5353 5347 5341 5335 5328 5320 5313 5304 5296 5288 5280 5272 5265 5257 5251 5245 5240 5237 5234 5233 5232 5230 5230 5228 5226 5223 5219 5213 5207 5201 5194 5188 5182 5176 5168
5365 5361 5356 5351 5345 5339 5332 5325 5318 5310 5302 5293 5285 5277 5269 5261 5254 5248 5243 5238 5235 5233 5232 5231 5230 5229 5228 5226 5222 5219 5214 5210 5204 5198 5192 5186 5181 5175
5362 5358 5354 5349 5343 5337 5331 5324 5316 5308 5300 5291 5283 5274 5266 5259 5252 5246 5241 5238 5235 5234 5232 5232 5231 5230 5228 5226 5224 5220 5216 5213 5208 5202 5197 5192 5187 5182